Location: Burgerwiesen
(48.6500°N, 15.6167°E)
Time: 01:58:03
(UTC+00:00)

STARLINK-1210 - Pass Details

Date: 09 April 2020
Orbit: 548 x 551 km, 53.0° (Epoch: 03 June)

Event Time Altitude Azimuth Distance (km) Brightness Sun altitude
Rises 18:25:12 0° 295° (WNW) 2,714 9.7 -7.8°
Reaches altitude 10° 18:27:27 10° 292° (WNW) 1,819 8.0 -8.2°
Maximum altitude 18:31:32 64° 212° (SSW) 608 3.9 -8.8°
Enters shadow 18:35:21 12° 131° (SE) 1,713 5.5 -9.4°
